Saint Paul, MN

5:08 PM CDT on September 28, 2016 (GMT -0500)
Saint Paul Downtown-Holman

Weather History for KSTP - August, 2012

Change the Weather History Date:

Saturday, August 4, 2012

  Actual Average Record
Temperature  
Mean Temperature 72 °F -  
Max Temperature 79 °F 80 °F 91 °F (2001)
Min Temperature 66 °F 60 °F 55 °F (2013)
Cooling Degree Days 6    
Growing Degree Days 22 (Base 50)    
Moisture  
Dew Point 61 °F    
Average Humidity 77    
Maximum Humidity 94    
Minimum Humidity 50    
Precipitation  
Precipitation 0.07 in - - ()
Sea Level Pressure  
Sea Level Pressure 29.85 in    
Wind  
Wind Speed 7 mph (WSW)    
Max Wind Speed 15 mph    
Max Gust Speed 24 mph    
Visibility 10 miles    
Events Rain , Thunderstorm    
Averages and records for this station are not official NWS values.
T = Trace of Precipitation, MM = Missing Value Source: NWS Daily Summary

Daily Weather History Graph

Daily Weather History Graph

Search for Another Location

Airport or City:

Trip Planner

Search our weather history database for the weather conditions in past years. The results will help you decide how hot, cold, wet, or windy it might be!

Date:

Astronomy

Aug. 04, 2012 Rise Set
Actual Time 6:01 AM CDT 8:33 PM CDT
Civil Twilight 5:28 AM CDT 9:07 PM CDT
Nautical Twilight 4:46 AM CDT 9:48 PM CDT
Astronomical Twilight 3:59 AM CDT 10:35 PM CDT
Moon 9:31 PM CDT (8/4) 9:00 AM CDT (8/4)
Length of Visible Light 15h 38m
Length of Day
14h 32m
Waning Gibbous, 92% of the Moon is Illuminated
Aug 4
Waning Gibbous
Aug 9
Last Quarter
Aug 17
New
Aug 24
First Quarter
Aug 31
Full

Hourly Weather History & Observations

Time (CDT) Temp. Dew Point Humidity Pressure Visibility Wind Dir Wind Speed Gust Speed Precip Events Conditions
12:06 AM 66.2 °F 64.4 °F 94% 29.90 in 7.0 mi Calm Calm - N/A Rain , Thunderstorm Light Thunderstorms and Rain
12:40 AM 66.2 °F 62.6 °F 88% 29.86 in 6.0 mi NE 3.5 mph - N/A Rain , Thunderstorm Light Rain
12:53 AM 66.9 °F 64.0 °F 90% 29.85 in 10.0 mi ESE 6.9 mph - N/A Rain , Thunderstorm Light Rain
1:01 AM 66.2 °F 64.4 °F 94% 29.86 in 10.0 mi SSE 11.5 mph - 0.01 in Rain Light Rain
1:53 AM 66.0 °F 64.0 °F 93% 29.78 in 10.0 mi SE 11.5 mph - 0.06 in   Partly Cloudy
2:53 AM 66.9 °F 63.0 °F 87% 29.81 in 10.0 mi Calm Calm - N/A   Scattered Clouds
3:53 AM 66.0 °F 63.0 °F 90% 29.80 in 10.0 mi SSW 3.5 mph - N/A   Partly Cloudy
4:53 AM 66.0 °F 64.0 °F 93% 29.79 in 10.0 mi ENE 3.5 mph - N/A   Clear
5:12 AM 66.2 °F 62.6 °F 88% 29.82 in 10.0 mi Calm Calm - N/A   Partly Cloudy
5:53 AM 66.0 °F 64.0 °F 93% 29.82 in 10.0 mi South 3.5 mph - N/A   Clear
6:53 AM 66.2 °F 64.4 °F 94% 29.81 in 10.0 mi South 11.5 mph - N/A   Clear
7:48 AM 66.2 °F 64.4 °F 94% 29.85 in 10.0 mi SSW 8.1 mph - N/A   Mostly Cloudy
7:53 AM 66.9 °F 64.0 °F 90% 29.84 in 10.0 mi SSW 9.2 mph - N/A   Mostly Cloudy
8:53 AM 68.0 °F 64.0 °F 87% 29.80 in 10.0 mi Calm Calm - N/A   Overcast
9:12 AM 68.0 °F 64.4 °F 88% 29.82 in 10.0 mi West 8.1 mph - N/A   Mostly Cloudy
9:46 AM 68.0 °F 64.4 °F 88% 29.88 in 10.0 mi WSW 10.4 mph 16.1 mph 0.00 in Rain Light Rain
9:53 AM 68.0 °F 64.0 °F 87% 29.87 in 10.0 mi SW 9.2 mph - 0.00 in Rain Light Rain
10:01 AM 68.0 °F 64.4 °F 88% 29.89 in 10.0 mi WSW 9.2 mph - 0.00 in Rain Light Rain
10:08 AM 68.0 °F 64.4 °F 88% 29.89 in 10.0 mi WSW 10.4 mph - 0.00 in Rain Light Rain
10:32 AM 68.0 °F 64.4 °F 88% 29.89 in 8.0 mi WSW 10.4 mph 19.6 mph 0.01 in Rain Light Rain
10:53 AM 69.1 °F 64.9 °F 87% 29.86 in 10.0 mi WSW 10.4 mph - 0.01 in   Mostly Cloudy
11:09 AM 69.8 °F 64.4 °F 83% 29.87 in 10.0 mi West 12.7 mph - N/A   Mostly Cloudy
11:53 AM 71.1 °F 61.0 °F 70% 29.85 in 10.0 mi West 9.2 mph - N/A   Clear
12:53 PM 71.6 °F 57.2 °F 60% 29.88 in 10.0 mi WSW 9.2 mph - N/A   Clear
1:53 PM 73.9 °F 57.9 °F 57% 29.84 in 10.0 mi West 9.2 mph - N/A   Clear
2:53 PM 75.0 °F 57.0 °F 53% 29.85 in 10.0 mi West 11.5 mph - N/A   Scattered Clouds
3:53 PM 77.0 °F 57.9 °F 52% 29.85 in 10.0 mi WNW 13.8 mph 19.6 mph N/A   Mostly Cloudy
4:53 PM 77.0 °F 57.0 °F 50% 29.86 in 10.0 mi West 12.7 mph 23.0 mph N/A   Scattered Clouds
5:53 PM 77.0 °F 57.0 °F 50% 29.86 in 10.0 mi WSW 8.1 mph - N/A   Clear
6:53 PM 75.9 °F 55.9 °F 50% 29.86 in 10.0 mi WSW 12.7 mph 18.4 mph N/A   Scattered Clouds
7:53 PM 75.0 °F 57.0 °F 53% 29.86 in 10.0 mi WSW 11.5 mph 17.3 mph N/A   Partly Cloudy
8:53 PM 73.0 °F 55.9 °F 55% 29.88 in 10.0 mi WNW 9.2 mph - N/A   Partly Cloudy
9:53 PM 72.0 °F 55.0 °F 55% 29.89 in 10.0 mi West 10.4 mph - N/A   Clear
10:53 PM 71.1 °F 55.0 °F 57% 29.90 in 10.0 mi WNW 13.8 mph 24.2 mph N/A   Clear
11:53 PM 70.0 °F 57.0 °F 63% 29.92 in 10.0 mi NW 15.0 mph 23.0 mph N/A   Mostly Cloudy